shoulder
new_line
new_line
first
second
third
Al di la della Luna; Beyond the Moon; Astrophotography; Astrofotografia; Danilo Pivato
 
 
         
         
2013
Orbital Elements

Epoch 2013 Mar. 9.0 TT = JDT 2456360.5
T 2013 Mar. 10.16991 TT                                                        MPCW
q   0.3015446            (2000.0)                          P                       Q
z  -0.0001077      Peri.  333.65163       +0.41005883     +0.10048669
 +/-0.0000001      Node   65.66585       +0.90783462     +0.05058136
e   1.0000325      Incl.     84.20822        -0.08768158     +0.99365183                        
 
         
         
2013.03.16 - 18h 21m U.T.
2013.03.16 - 18h 23m U.T.
2013.03.16 - 18h 25m U.T.
2013.03.16 - 18h 26m U.T.
2013.03.16 - 18h 31m U.T.
         
       
     
2013.03.16 - 18h 35m U.T.
2013.04.14
     
         
         
         
         

 

       
 
Since: 01/01/2004
 
           
Since: 01/11/2010